Powrót do katalogu

KUIPER-00602

AktywnyŁącznośćLEO
NORAD 69286·PAYLOAD·🇺🇸 United States

Wystrzelony May 29, 2026 z Vandenberg Space Force Base

Loading…

Następne Przeloty (najbliższe 24 godziny)

TLE

ŚwieżeSource: CelesTrak SupGP

Epoka: Sep 14, 2026, 19:58 UTC

1 69286C 26118V   26257.83243056  .00005149  00000+0  67395-3 0  2570
2 69286  51.9023 356.6709 0000592 192.9315 109.4713 14.79928914    15

Śledź KUIPER-00602 w czasie rzeczywistym z AllMySat

Download on the App Store